H1 CPF  2 gal 2024 05 31 07 152 1 galileo215
H2 1707901 7215 43055 2024 05 31 00 14 42 2024 06 05 00 14 42 900 1 1 0 0 0 1
H9                                                                                
10 0 60465  76482.000000  0      18904415.837      -6609310.060     -21798736.686 
10 0 60465  77382.000000  0      20611063.515      -5754401.197     -20453078.655 
10 0 60465  78282.000000  0      22250838.945      -5072558.446     -18853088.300 
10 0 60465  79182.000000  0      23788002.928      -4558196.300     -17018660.316 
10 0 60465  80082.000000  0      25188775.142      -4199796.054     -14972604.369 
10 0 60465  80982.000000  0      26422361.892      -3980324.695     -12740361.892 
10 0 60465  81882.000000  0      27461893.133      -3877827.817     -10349690.062 
10 0 60465  82782.000000  0      28285239.452      -3866177.879      -7830316.844 
10 0 60465  83682.000000  0      28875683.427      -3915954.283      -5213571.381 
10 0 60465  84582.000000  0      29222424.344      -3995427.578      -2531994.336 
10 0 60465  85482.000000  0      29320900.441      -4071616.836        181066.964 
10 0 60465  86382.000000  0      29172918.609      -4111386.925       2891873.488 
10 0 60466    882.000000  0      28786587.484      -4082551.161       5566714.370 
99